Tracking 21612 objects as of 19-Oct-2020
HD Live streaming from Space Station
objects crossing your sky now

SL-12 DEB

Track SL-12 DEB now!
10-day predictions


NORAD ID: 41703
Int'l Code: 2010-007V
Perigee: 461.8 km
Apogee: 18,732.5 km
Inclination: 64.6 °
Period: 334.7 minutes
Semi major axis: 15968 km
RCS: Unknown
Launch date: March 1, 2010
Source: Commonwealth of Independent States (former USSR) (CIS)
Launch site: TYURATAM MISSILE AND SPACE COMPLEX (TTMTR)

Note: This is SATELLITE DEBRIS
aabbcc
Your satellite tracking list
Your tracking list is empty




NASA's NSSDC Master Catalog

Two Line Element Set (TLE):
1 41703U 10007V   20292.89573518  .00001571  00000-0  23944-2 0  9992
2 41703  64.6343 198.8752 5720954  22.3544 354.9635  4.30250295 88635
Source of the keplerian elements: AFSPC